Time,TemperatureF,DewpointF,PressureIn,WindDirection,WindDirectionDegrees,WindSpeedMPH,WindSpeedGustMPH,Humidity,HourlyPrecipIn,Conditions,Clouds,dailyrainin,SoftwareType,DateUTC
2013-08-18 00:01:00,66.2,63.2,30.15,NE,45,0.0,0.0,90,0.00,,,0.00,WUHU216HW,2013-08-18 04:01:00,
2013-08-18 00:06:00,66.2,63.2,30.16,NE,45,0.0,0.0,90,0.00,,,0.00,WUHU216HW,2013-08-18 04:06:00,
2013-08-18 00:11:00,66.1,63.0,30.16,NE,45,0.0,0.0,90,0.00,,,0.00,WUHU216HW,2013-08-18 04:11:00,
2013-08-18 00:16:00,66.1,63.0,30.15,NE,45,0.0,0.0,90,0.00,,,0.00,WUHU216HW,2013-08-18 04:16:00,
2013-08-18 00:21:00,66.1,63.0,30.16,NE,45,0.0,0.0,90,0.00,,,0.00,WUHU216HW,2013-08-18 04:21:00,
2013-08-18 00:26:00,66.1,63.4,30.15,NE,45,0.0,0.0,91,0.00,,,0.00,WUHU216HW,2013-08-18 04:26:00,
2013-08-18 00:31:00,66.2,63.5,30.15,NE,45,0.0,0.0,91,0.00,,,0.00,WUHU216HW,2013-08-18 04:31:00,
2013-08-18 00:36:00,66.1,63.4,30.15,NE,45,0.0,0.0,91,0.00,,,0.00,WUHU216HW,2013-08-18 04:36:00,
2013-08-18 00:41:00,66.1,63.4,30.15,NE,45,0.0,0.0,91,0.00,,,0.00,WUHU216HW,2013-08-18 04:41:00,
2013-08-18 00:46:00,66.2,63.5,30.15,NNE,23,0.0,0.0,91,0.00,,,0.00,WUHU216HW,2013-08-18 04:46:00,
2013-08-18 00:51:00,66.2,63.5,30.14,NNE,23,0.0,0.0,91,0.00,,,0.00,WUHU216HW,2013-08-18 04:51:00,
2013-08-18 00:56:00,66.1,63.4,30.15,NNE,23,0.0,0.0,91,0.00,,,0.00,WUHU216HW,2013-08-18 04:56:00,
2013-08-18 01:01:00,66.1,63.4,30.14,NNE,23,0.0,0.0,91,0.00,,,0.00,WUHU216HW,2013-08-18 05:01:00,
2013-08-18 01:06:00,66.1,63.4,30.15,NNE,23,0.0,0.0,91,0.00,,,0.00,WUHU216HW,2013-08-18 05:06:00,
2013-08-18 01:11:00,66.1,63.4,30.15,NNE,23,0.0,0.0,91,0.00,,,0.00,WUHU216HW,2013-08-18 05:11:00,
2013-08-18 01:16:00,66.1,63.4,30.15,NNE,23,0.0,0.0,91,0.00,,,0.00,WUHU216HW,2013-08-18 05:16:00,
2013-08-18 01:21:00,66.1,63.4,30.15,NNE,23,0.0,0.0,91,0.00,,,0.00,WUHU216HW,2013-08-18 05:21:00,
2013-08-18 01:26:00,66.1,63.4,30.15,NNE,23,0.0,0.0,91,0.00,,,0.00,WUHU216HW,2013-08-18 05:26:00,
2013-08-18 01:31:00,66.1,63.4,30.15,NNE,23,0.0,0.0,91,0.00,,,0.00,WUHU216HW,2013-08-18 05:31:00,
2013-08-18 01:36:00,66.1,63.4,30.15,NNE,23,0.0,0.0,91,0.00,,,0.00,WUHU216HW,2013-08-18 05:36:00,
2013-08-18 01:41:00,66.1,63.4,30.14,NNE,23,0.0,0.0,91,0.00,,,0.00,WUHU216HW,2013-08-18 05:41:00,
2013-08-18 01:46:00,66.1,63.4,30.14,NNE,23,0.0,0.0,91,0.00,,,0.00,WUHU216HW,2013-08-18 05:46:00,
2013-08-18 01:51:00,66.1,63.4,30.14,NNE,23,0.0,0.0,91,0.00,,,0.00,WUHU216HW,2013-08-18 05:51:00,
2013-08-18 01:56:00,65.9,63.2,30.15,NNE,23,0.0,0.0,91,0.00,,,0.00,WUHU216HW,2013-08-18 05:56:00,
2013-08-18 02:01:00,65.9,63.2,30.15,NNE,23,0.0,0.0,91,0.00,,,0.00,WUHU216HW,2013-08-18 06:01:00,
2013-08-18 02:06:00,65.9,63.2,30.14,NNE,23,0.0,0.0,91,0.00,,,0.00,WUHU216HW,2013-08-18 06:06:00,
2013-08-18 02:11:00,65.9,63.2,30.14,NNE,23,0.0,0.0,91,0.00,,,0.00,WUHU216HW,2013-08-18 06:11:00,
2013-08-18 02:16:00,65.9,63.2,30.14,NNE,23,0.0,0.0,91,0.00,,,0.00,WUHU216HW,2013-08-18 06:16:00,
2013-08-18 02:21:00,65.9,63.2,30.14,NNE,23,0.0,0.0,91,0.01,,,0.01,WUHU216HW,2013-08-18 06:21:00,
2013-08-18 02:26:00,65.9,63.2,30.14,NNE,23,0.0,0.0,91,0.01,,,0.01,WUHU216HW,2013-08-18 06:26:00,
2013-08-18 02:31:00,65.9,63.2,30.14,NNE,23,0.0,0.0,91,0.01,,,0.01,WUHU216HW,2013-08-18 06:31:00,
2013-08-18 02:36:00,65.9,63.2,30.14,NNE,23,0.0,0.0,91,0.01,,,0.01,WUHU216HW,2013-08-18 06:36:00,
2013-08-18 02:41:00,65.9,63.2,30.14,NNE,23,0.0,0.0,91,0.01,,,0.01,WUHU216HW,2013-08-18 06:41:00,
2013-08-18 02:46:00,65.9,63.2,30.14,NNE,23,0.0,0.0,91,0.01,,,0.01,WUHU216HW,2013-08-18 06:46:00,
2013-08-18 02:52:00,65.9,63.2,30.14,NNE,23,0.0,0.0,91,0.01,,,0.01,WUHU216HW,2013-08-18 06:52:00,
2013-08-18 02:57:00,65.9,63.2,30.14,NNE,23,0.0,0.0,91,0.01,,,0.01,WUHU216HW,2013-08-18 06:57:00,
2013-08-18 03:02:00,65.9,63.2,30.14,NNE,23,0.0,0.0,91,0.01,,,0.01,WUHU216HW,2013-08-18 07:02:00,
2013-08-18 03:07:00,65.9,63.2,30.14,NNE,23,0.0,0.0,91,0.01,,,0.01,WUHU216HW,2013-08-18 07:07:00,
2013-08-18 03:12:00,65.9,63.2,30.13,NNE,23,0.0,0.2,91,0.01,,,0.01,WUHU216HW,2013-08-18 07:12:00,
2013-08-18 03:17:00,65.9,63.2,30.13,NNE,23,0.0,0.2,91,0.00,,,0.01,WUHU216HW,2013-08-18 07:17:00,
2013-08-18 03:22:00,66.1,63.4,30.13,ENE,68,0.0,0.2,91,0.00,,,0.01,WUHU216HW,2013-08-18 07:22:00,
2013-08-18 03:27:00,65.9,63.2,30.13,ENE,68,0.0,0.2,91,0.00,,,0.01,WUHU216HW,2013-08-18 07:27:00,
2013-08-18 03:32:00,65.9,63.2,30.14,ENE,68,0.0,0.0,91,0.01,,,0.02,WUHU216HW,2013-08-18 07:32:00,
2013-08-18 03:37:00,65.9,63.2,30.14,ENE,68,0.0,0.0,91,0.01,,,0.02,WUHU216HW,2013-08-18 07:37:00,
2013-08-18 03:42:00,65.9,63.2,30.14,East,90,0.0,0.2,91,0.01,,,0.02,WUHU216HW,2013-08-18 07:42:00,
2013-08-18 03:47:00,65.9,63.2,30.14,East,90,0.0,0.2,91,0.01,,,0.02,WUHU216HW,2013-08-18 07:47:00,
2013-08-18 03:52:00,65.9,63.2,30.14,East,90,0.2,0.2,91,0.01,,,0.02,WUHU216HW,2013-08-18 07:52:00,
2013-08-18 03:57:00,65.9,63.2,30.14,East,90,0.0,0.2,91,0.01,,,0.02,WUHU216HW,2013-08-18 07:57:00,
2013-08-18 04:02:00,65.9,63.2,30.14,East,90,0.0,0.2,91,0.01,,,0.02,WUHU216HW,2013-08-18 08:02:00,
2013-08-18 04:07:00,65.9,63.2,30.14,ESE,113,0.2,0.2,91,0.01,,,0.02,WUHU216HW,2013-08-18 08:07:00,
2013-08-18 04:12:00,65.9,63.2,30.13,ESE,113,0.0,0.2,91,0.01,,,0.02,WUHU216HW,2013-08-18 08:12:00,
2013-08-18 04:17:00,65.9,63.2,30.13,ESE,113,0.0,0.2,91,0.01,,,0.02,WUHU216HW,2013-08-18 08:17:00,
2013-08-18 04:22:00,65.7,63.0,30.13,ESE,113,0.0,0.0,91,0.01,,,0.02,WUHU216HW,2013-08-18 08:22:00,
2013-08-18 04:27:00,65.7,62.7,30.13,ESE,113,0.0,0.0,90,0.01,,,0.02,WUHU216HW,2013-08-18 08:27:00,
2013-08-18 04:32:00,65.7,62.7,30.13,ESE,113,0.0,0.0,90,0.00,,,0.02,WUHU216HW,2013-08-18 08:32:00,
2013-08-18 04:37:00,65.7,62.7,30.13,SE,135,0.0,0.2,90,0.00,,,0.02,WUHU216HW,2013-08-18 08:37:00,
2013-08-18 04:42:00,65.7,62.7,30.13,SE,135,0.0,0.2,90,0.00,,,0.02,WUHU216HW,2013-08-18 08:42:00,
2013-08-18 04:47:00,65.7,62.7,30.13,SE,135,0.0,0.2,90,0.00,,,0.02,WUHU216HW,2013-08-18 08:47:00,
2013-08-18 04:52:00,65.5,62.6,30.13,SE,135,0.0,0.2,90,0.00,,,0.02,WUHU216HW,2013-08-18 08:52:00,
2013-08-18 04:57:00,65.5,62.6,30.13,SE,135,0.0,0.2,90,0.00,,,0.02,WUHU216HW,2013-08-18 08:57:00,
2013-08-18 05:02:00,65.5,62.6,30.14,SE,135,0.0,0.2,90,0.00,,,0.02,WUHU216HW,2013-08-18 09:02:00,
2013-08-18 05:07:00,65.7,62.7,30.14,SE,135,0.0,0.2,90,0.00,,,0.02,WUHU216HW,2013-08-18 09:07:00,
2013-08-18 05:12:00,65.7,62.7,30.14,SE,135,0.0,0.2,90,0.00,,,0.02,WUHU216HW,2013-08-18 09:12:00,
2013-08-18 05:17:00,65.7,62.7,30.14,ESE,113,0.0,0.2,90,0.00,,,0.02,WUHU216HW,2013-08-18 09:17:00,
2013-08-18 05:22:00,65.7,62.7,30.14,ESE,113,0.0,0.0,90,0.00,,,0.02,WUHU216HW,2013-08-18 09:22:00,
2013-08-18 05:27:00,65.7,63.0,30.14,ESE,113,0.0,0.2,91,0.00,,,0.02,WUHU216HW,2013-08-18 09:27:00,
2013-08-18 05:32:00,65.7,62.7,30.14,ESE,113,0.0,0.2,90,0.00,,,0.02,WUHU216HW,2013-08-18 09:32:00,
2013-08-18 05:37:00,65.7,63.0,30.14,ESE,113,0.2,0.2,91,0.00,,,0.02,WUHU216HW,2013-08-18 09:37:00,
2013-08-18 05:42:00,65.7,63.0,30.14,ESE,113,0.0,0.2,91,0.00,,,0.02,WUHU216HW,2013-08-18 09:42:00,
2013-08-18 05:47:00,65.7,63.3,30.15,ESE,113,0.0,0.2,92,0.00,,,0.02,WUHU216HW,2013-08-18 09:47:00,
2013-08-18 05:52:00,65.7,63.3,30.15,ESE,113,0.0,0.2,92,0.00,,,0.02,WUHU216HW,2013-08-18 09:52:00,
2013-08-18 05:57:00,65.9,63.5,30.14,ESE,113,0.0,0.2,92,0.00,,,0.02,WUHU216HW,2013-08-18 09:57:00,
2013-08-18 06:02:00,65.9,63.5,30.15,ESE,113,0.0,0.2,92,0.00,,,0.02,WUHU216HW,2013-08-18 10:02:00,
2013-08-18 06:07:00,65.9,63.5,30.15,ESE,113,0.0,0.2,92,0.00,,,0.02,WUHU216HW,2013-08-18 10:07:00,
2013-08-18 06:12:00,65.9,63.5,30.15,ESE,113,0.0,0.0,92,0.00,,,0.02,WUHU216HW,2013-08-18 10:12:00,
2013-08-18 06:17:00,65.9,63.5,30.16,SE,135,0.0,0.2,92,0.00,,,0.02,WUHU216HW,2013-08-18 10:17:00,
2013-08-18 06:22:00,65.9,63.5,30.16,SE,135,0.0,0.2,92,0.00,,,0.02,WUHU216HW,2013-08-18 10:22:00,
2013-08-18 06:27:00,65.9,63.5,30.16,SE,135,0.0,0.2,92,0.00,,,0.02,WUHU216HW,2013-08-18 10:27:00,
2013-08-18 06:32:00,65.9,63.2,30.16,ESE,113,0.0,0.2,91,0.00,,,0.02,WUHU216HW,2013-08-18 10:32:00,
2013-08-18 06:37:00,65.9,63.2,30.16,ESE,113,0.0,0.0,91,0.00,,,0.02,WUHU216HW,2013-08-18 10:37:00,
2013-08-18 06:42:00,65.9,63.2,30.15,ESE,113,0.0,0.2,91,0.00,,,0.02,WUHU216HW,2013-08-18 10:42:00,
2013-08-18 06:47:00,65.9,63.2,30.15,ESE,113,0.0,0.2,91,0.00,,,0.02,WUHU216HW,2013-08-18 10:47:00,
2013-08-18 06:52:00,65.9,63.2,30.15,ESE,113,0.0,0.2,91,0.00,,,0.02,WUHU216HW,2013-08-18 10:52:00,
2013-08-18 06:57:00,65.9,63.2,30.16,ESE,113,0.0,0.2,91,0.00,,,0.02,WUHU216HW,2013-08-18 10:57:00,
2013-08-18 07:02:00,65.9,63.2,30.16,ESE,113,0.0,0.2,91,0.00,,,0.02,WUHU216HW,2013-08-18 11:02:00,
2013-08-18 07:07:00,65.9,63.2,30.16,ESE,113,0.0,0.2,91,0.00,,,0.02,WUHU216HW,2013-08-18 11:07:00,
2013-08-18 07:12:00,65.9,63.2,30.16,ESE,113,0.0,0.2,91,0.00,,,0.02,WUHU216HW,2013-08-18 11:12:00,
2013-08-18 07:17:00,65.9,63.2,30.17,ESE,113,0.0,0.2,91,0.00,,,0.02,WUHU216HW,2013-08-18 11:17:00,
2013-08-18 07:22:00,65.9,63.2,30.17,ESE,113,0.2,0.2,91,0.00,,,0.02,WUHU216HW,2013-08-18 11:22:00,
2013-08-18 07:27:00,65.9,63.2,30.16,ESE,113,0.0,0.2,91,0.00,,,0.02,WUHU216HW,2013-08-18 11:27:00,
2013-08-18 07:32:00,65.9,63.2,30.17,SE,135,0.0,0.2,91,0.00,,,0.02,WUHU216HW,2013-08-18 11:32:00,
2013-08-18 07:37:00,65.9,63.2,30.17,SE,135,0.0,0.2,91,0.00,,,0.02,WUHU216HW,2013-08-18 11:37:00,
2013-08-18 07:42:00,65.9,63.2,30.17,SE,135,0.0,0.0,91,0.00,,,0.02,WUHU216HW,2013-08-18 11:42:00,
2013-08-18 07:47:00,65.9,63.2,30.17,ESE,113,0.0,0.2,91,0.00,,,0.02,WUHU216HW,2013-08-18 11:47:00,
2013-08-18 07:52:00,65.9,63.2,30.17,ESE,113,0.0,0.2,91,0.00,,,0.02,WUHU216HW,2013-08-18 11:52:00,
2013-08-18 07:57:00,65.9,63.2,30.18,ESE,113,0.0,0.2,91,0.00,,,0.02,WUHU216HW,2013-08-18 11:57:00,
2013-08-18 08:02:00,66.1,63.4,30.18,ESE,113,0.0,0.2,91,0.00,,,0.02,WUHU216HW,2013-08-18 12:02:00,
2013-08-18 08:07:00,66.1,63.4,30.18,ESE,113,0.0,0.2,91,0.00,,,0.02,WUHU216HW,2013-08-18 12:07:00,
2013-08-18 08:12:00,66.2,63.5,30.17,ESE,113,0.0,0.0,91,0.00,,,0.02,WUHU216HW,2013-08-18 12:12:00,
2013-08-18 08:17:00,66.2,63.8,30.17,ESE,113,0.0,0.4,92,0.00,,,0.02,WUHU216HW,2013-08-18 12:17:00,
2013-08-18 08:22:00,66.2,63.8,30.18,ESE,113,0.0,0.4,92,0.00,,,0.02,WUHU216HW,2013-08-18 12:22:00,
2013-08-18 08:27:00,66.2,63.8,30.18,ESE,113,0.0,0.2,92,0.00,,,0.02,WUHU216HW,2013-08-18 12:27:00,
2013-08-18 08:32:00,66.2,63.8,30.18,ESE,113,0.0,0.0,92,0.00,,,0.02,WUHU216HW,2013-08-18 12:32:00,
2013-08-18 08:37:00,66.2,63.8,30.18,ESE,113,0.0,0.0,92,0.00,,,0.02,WUHU216HW,2013-08-18 12:37:00,
2013-08-18 08:42:00,66.4,64.0,30.19,ESE,113,0.0,0.0,92,0.00,,,0.02,WUHU216HW,2013-08-18 12:42:00,
2013-08-18 08:47:00,66.2,63.8,30.19,ESE,113,0.0,0.0,92,0.00,,,0.02,WUHU216HW,2013-08-18 12:47:00,
2013-08-18 08:52:00,66.4,64.0,30.19,ESE,113,0.0,0.0,92,0.00,,,0.02,WUHU216HW,2013-08-18 12:52:00,
2013-08-18 08:57:00,66.6,64.2,30.19,ESE,113,0.0,0.2,92,0.00,,,0.02,WUHU216HW,2013-08-18 12:57:00,
2013-08-18 09:02:00,66.6,64.2,30.19,ESE,113,0.0,0.2,92,0.00,,,0.02,WUHU216HW,2013-08-18 13:02:00,
2013-08-18 09:07:00,66.6,64.2,30.19,ESE,113,0.0,0.0,92,0.00,,,0.02,WUHU216HW,2013-08-18 13:07:00,
2013-08-18 09:12:00,66.8,64.4,30.19,ESE,113,0.0,0.2,92,0.00,,,0.02,WUHU216HW,2013-08-18 13:12:00,
2013-08-18 09:17:00,66.8,64.4,30.19,ESE,113,0.0,0.2,92,0.00,,,0.02,WUHU216HW,2013-08-18 13:17:00,
2013-08-18 09:22:00,67.0,64.5,30.19,ESE,113,0.0,0.0,92,0.00,,,0.02,WUHU216HW,2013-08-18 13:22:00,
2013-08-18 09:27:00,67.1,64.7,30.19,NE,45,0.0,0.0,92,0.00,,,0.02,WUHU216HW,2013-08-18 13:27:00,
2013-08-18 09:32:00,67.3,64.9,30.19,SE,135,0.0,0.2,92,0.00,,,0.02,WUHU216HW,2013-08-18 13:32:00,
2013-08-18 09:37:00,67.5,65.1,30.20,WSW,248,0.0,0.2,92,0.00,,,0.02,WUHU216HW,2013-08-18 13:37:00,
2013-08-18 09:42:00,67.7,65.3,30.20,SW,225,0.0,0.2,92,0.00,,,0.02,WUHU216HW,2013-08-18 13:42:00,
2013-08-18 09:47:00,67.9,65.4,30.20,SE,135,0.0,0.2,92,0.00,,,0.02,WUHU216HW,2013-08-18 13:47:00,
2013-08-18 09:52:00,67.9,65.4,30.20,SE,135,0.0,0.2,92,0.00,,,0.02,WUHU216HW,2013-08-18 13:52:00,
2013-08-18 09:57:00,68.0,65.6,30.20,ESE,113,0.2,0.2,92,0.00,,,0.02,WUHU216HW,2013-08-18 13:57:00,
2013-08-18 10:02:00,68.0,65.6,30.20,SW,225,0.0,0.2,92,0.00,,,0.02,WUHU216HW,2013-08-18 14:02:00,
2013-08-18 10:07:00,68.0,65.6,30.20,SSW,203,0.2,0.2,92,0.00,,,0.02,WUHU216HW,2013-08-18 14:07:00,
2013-08-18 10:12:00,68.2,65.8,30.21,SW,225,0.0,0.2,92,0.00,,,0.02,WUHU216HW,2013-08-18 14:12:00,
2013-08-18 10:17:00,68.4,66.0,30.20,ENE,68,0.2,0.2,92,0.00,,,0.02,WUHU216HW,2013-08-18 14:17:00,
2013-08-18 10:22:00,68.6,65.8,30.21,NW,315,0.0,0.2,91,0.00,,,0.02,WUHU216HW,2013-08-18 14:22:00,
2013-08-18 10:27:00,68.8,66.0,30.21,SSE,158,0.0,0.2,91,0.00,,,0.02,WUHU216HW,2013-08-18 14:27:00,
2013-08-18 10:32:00,68.8,66.0,30.21,North,0,0.0,0.2,91,0.00,,,0.02,WUHU216HW,2013-08-18 14:32:00,
2013-08-18 10:37:00,68.8,66.0,30.21,North,0,0.0,0.2,91,0.00,,,0.02,WUHU216HW,2013-08-18 14:37:00,
2013-08-18 10:42:00,68.8,66.0,30.21,North,0,0.0,0.0,91,0.00,,,0.02,WUHU216HW,2013-08-18 14:42:00,
2013-08-18 10:47:00,68.9,65.9,30.21,North,0,0.0,0.0,90,0.00,,,0.02,WUHU216HW,2013-08-18 14:47:00,
2013-08-18 10:52:00,68.9,65.9,30.22,North,0,0.0,0.2,90,0.00,,,0.02,WUHU216HW,2013-08-18 14:52:00,
2013-08-18 10:57:00,68.9,65.9,30.22,North,0,0.0,0.2,90,0.00,,,0.02,WUHU216HW,2013-08-18 14:57:00,
2013-08-18 11:02:00,68.9,65.9,30.22,North,0,0.0,0.0,90,0.00,,,0.02,WUHU216HW,2013-08-18 15:02:00,
2013-08-18 11:07:00,68.9,65.9,30.22,North,0,0.0,0.0,90,0.00,,,0.02,WUHU216HW,2013-08-18 15:07:00,
2013-08-18 11:12:00,68.9,65.9,30.22,North,0,0.0,0.0,90,0.00,,,0.02,WUHU216HW,2013-08-18 15:12:00,
2013-08-18 11:17:00,69.1,66.1,30.22,North,0,0.0,0.0,90,0.00,,,0.02,WUHU216HW,2013-08-18 15:17:00,
2013-08-18 11:22:00,69.1,66.1,30.22,North,0,0.0,0.0,90,0.00,,,0.02,WUHU216HW,2013-08-18 15:22:00,
2013-08-18 11:27:00,69.1,66.1,30.22,North,0,0.2,0.2,90,0.00,,,0.02,WUHU216HW,2013-08-18 15:27:00,
2013-08-18 11:32:00,69.1,66.1,30.22,North,0,0.0,0.2,90,0.01,,,0.03,WUHU216HW,2013-08-18 15:32:00,
2013-08-18 11:37:00,69.3,66.2,30.22,North,0,0.0,0.2,90,0.02,,,0.04,WUHU216HW,2013-08-18 15:37:00,
2013-08-18 11:42:00,69.3,66.2,30.22,WNW,293,0.2,0.2,90,0.02,,,0.04,WUHU216HW,2013-08-18 15:42:00,
2013-08-18 11:47:00,69.1,66.1,30.22,NW,315,0.0,0.2,90,0.02,,,0.04,WUHU216HW,2013-08-18 15:47:00,
2013-08-18 11:52:00,69.3,66.2,30.21,North,0,0.0,0.2,90,0.02,,,0.04,WUHU216HW,2013-08-18 15:52:00,
2013-08-18 11:57:00,69.5,66.4,30.21,North,0,0.0,0.7,90,0.02,,,0.04,WUHU216HW,2013-08-18 15:57:00,
2013-08-18 12:02:00,69.5,66.4,30.21,North,0,0.2,0.7,90,0.02,,,0.04,WUHU216HW,2013-08-18 16:02:00,
2013-08-18 12:07:00,69.7,66.6,30.21,NNW,338,0.9,0.9,90,0.02,,,0.04,WUHU216HW,2013-08-18 16:07:00,
2013-08-18 12:12:00,69.8,66.8,30.21,North,0,0.0,1.1,90,0.02,,,0.04,WUHU216HW,2013-08-18 16:12:00,
2013-08-18 12:17:00,70.0,67.0,30.21,NNW,338,0.4,1.1,90,0.02,,,0.04,WUHU216HW,2013-08-18 16:17:00,
2013-08-18 12:22:00,70.2,67.1,30.21,WSW,248,0.7,1.3,90,0.02,,,0.04,WUHU216HW,2013-08-18 16:22:00,
2013-08-18 12:27:00,70.2,67.1,30.21,West,270,0.2,1.3,90,0.02,,,0.04,WUHU216HW,2013-08-18 16:27:00,
2013-08-18 12:32:00,70.4,67.3,30.21,NNE,23,0.2,0.9,90,0.00,,,0.04,WUHU216HW,2013-08-18 16:32:00,
2013-08-18 12:37:00,70.6,67.1,30.21,ESE,113,0.0,0.7,89,0.00,,,0.04,WUHU216HW,2013-08-18 16:37:00,
2013-08-18 12:42:00,70.9,67.5,30.21,North,0,0.4,1.1,89,0.00,,,0.04,WUHU216HW,2013-08-18 16:42:00,
2013-08-18 12:47:00,71.5,68.0,30.21,North,0,0.7,1.3,89,0.00,,,0.04,WUHU216HW,2013-08-18 16:47:00,
2013-08-18 12:52:00,71.6,67.9,30.21,NNE,23,0.0,1.3,88,0.00,,,0.04,WUHU216HW,2013-08-18 16:52:00,
2013-08-18 12:57:00,71.8,68.0,30.21,NNW,338,0.0,1.1,88,0.00,,,0.04,WUHU216HW,2013-08-18 16:57:00,
2013-08-18 13:02:00,71.8,68.0,30.21,SE,135,1.1,1.8,88,0.00,,,0.04,WUHU216HW,2013-08-18 17:02:00,
2013-08-18 13:07:00,71.8,68.0,30.21,West,270,0.4,1.8,88,0.00,,,0.04,WUHU216HW,2013-08-18 17:07:00,
2013-08-18 13:12:00,72.0,68.2,30.21,NNW,338,0.4,1.1,88,0.00,,,0.04,WUHU216HW,2013-08-18 17:12:00,
2013-08-18 13:17:00,71.8,68.0,30.21,WNW,293,0.0,1.1,88,0.00,,,0.04,WUHU216HW,2013-08-18 17:17:00,
2013-08-18 13:22:00,71.8,68.0,30.20,NNE,23,0.4,0.9,88,0.00,,,0.04,WUHU216HW,2013-08-18 17:22:00,
2013-08-18 13:27:00,72.2,68.4,30.20,WSW,248,0.4,1.3,88,0.00,,,0.04,WUHU216HW,2013-08-18 17:27:00,
2013-08-18 13:32:00,72.4,68.6,30.20,SSE,158,0.2,1.8,88,0.00,,,0.04,WUHU216HW,2013-08-18 17:32:00,
2013-08-18 13:37:00,72.7,68.7,30.20,WSW,248,1.8,1.8,87,0.00,,,0.04,WUHU216HW,2013-08-18 17:37:00,
2013-08-18 13:42:00,73.3,69.5,30.20,WSW,248,1.6,1.8,88,0.00,,,0.04,WUHU216HW,2013-08-18 17:42:00,
2013-08-18 13:47:00,73.4,69.4,30.20,West,270,3.1,3.8,87,0.00,,,0.04,WUHU216HW,2013-08-18 17:47:00,
2013-08-18 13:52:00,73.3,68.9,30.20,West,270,1.3,3.8,86,0.00,,,0.04,WUHU216HW,2013-08-18 17:52:00,
2013-08-18 13:57:00,73.3,69.2,30.19,North,0,0.4,3.1,87,0.00,,,0.04,WUHU216HW,2013-08-18 17:57:00,
2013-08-18 14:02:00,73.4,69.4,30.19,WSW,248,1.3,2.9,87,0.00,,,0.04,WUHU216HW,2013-08-18 18:02:00,
2013-08-18 14:07:00,73.3,68.9,30.19,West,270,0.4,3.4,86,0.00,,,0.04,WUHU216HW,2013-08-18 18:07:00,
2013-08-18 14:12:00,73.3,68.5,30.19,North,0,1.1,3.4,85,0.00,,,0.04,WUHU216HW,2013-08-18 18:12:00,
2013-08-18 14:17:00,73.6,68.9,30.18,WSW,248,1.8,1.8,85,0.00,,,0.04,WUHU216HW,2013-08-18 18:17:00,
2013-08-18 14:22:00,73.6,68.9,30.18,WNW,293,0.4,2.2,85,0.00,,,0.04,WUHU216HW,2013-08-18 18:22:00,
2013-08-18 14:27:00,73.8,69.0,30.18,North,0,0.9,2.2,85,0.00,,,0.04,WUHU216HW,2013-08-18 18:27:00,
2013-08-18 14:32:00,74.3,69.2,30.18,WNW,293,1.1,2.2,84,0.00,,,0.04,WUHU216HW,2013-08-18 18:32:00,
2013-08-18 14:37:00,74.5,69.0,30.18,NW,315,1.1,2.2,83,0.00,,,0.04,WUHU216HW,2013-08-18 18:37:00,
2013-08-18 14:42:00,74.7,69.0,30.18,WNW,293,1.1,2.5,82,0.00,,,0.04,WUHU216HW,2013-08-18 18:42:00,
2013-08-18 14:47:00,74.7,68.6,30.18,WSW,248,2.2,2.5,81,0.00,,,0.04,WUHU216HW,2013-08-18 18:47:00,
2013-08-18 14:52:00,74.5,68.4,30.18,WNW,293,2.0,2.5,81,0.00,,,0.04,WUHU216HW,2013-08-18 18:52:00,
2013-08-18 14:57:00,74.5,68.4,30.18,WNW,293,1.8,2.5,81,0.00,,,0.04,WUHU216HW,2013-08-18 18:57:00,
2013-08-18 15:02:00,74.3,67.9,30.18,WNW,293,1.1,2.7,80,0.00,,,0.04,WUHU216HW,2013-08-18 19:02:00,
2013-08-18 15:07:00,74.5,68.4,30.17,WNW,293,1.8,2.7,81,0.00,,,0.04,WUHU216HW,2013-08-18 19:07:00,
2013-08-18 15:12:00,74.7,68.2,30.17,WNW,293,1.1,2.7,80,0.00,,,0.04,WUHU216HW,2013-08-18 19:12:00,
2013-08-18 15:17:00,74.9,68.8,30.17,West,270,0.9,2.5,81,0.00,,,0.04,WUHU216HW,2013-08-18 19:17:00,
2013-08-18 15:22:00,74.9,68.8,30.17,WSW,248,0.4,2.5,81,0.00,,,0.04,WUHU216HW,2013-08-18 19:22:00,
2013-08-18 15:27:00,75.1,69.0,30.17,WNW,293,1.3,2.5,81,0.00,,,0.04,WUHU216HW,2013-08-18 19:27:00,
2013-08-18 15:32:00,75.2,69.1,30.17,West,270,2.0,2.0,81,0.00,,,0.04,WUHU216HW,2013-08-18 19:32:00,
2013-08-18 15:37:00,75.2,68.8,30.17,North,0,1.8,2.9,80,0.00,,,0.04,WUHU216HW,2013-08-18 19:37:00,
2013-08-18 15:42:00,75.6,68.7,30.16,WNW,293,1.6,2.9,79,0.00,,,0.04,WUHU216HW,2013-08-18 19:42:00,
2013-08-18 15:47:00,76.0,69.0,30.16,WNW,293,0.7,2.7,79,0.00,,,0.04,WUHU216HW,2013-08-18 19:47:00,
2013-08-18 15:52:00,76.0,68.7,30.16,West,270,1.1,1.8,78,0.00,,,0.04,WUHU216HW,2013-08-18 19:52:00,
2013-08-18 15:57:00,75.8,68.5,30.16,NW,315,0.9,3.4,78,0.00,,,0.04,WUHU216HW,2013-08-18 19:57:00,
2013-08-18 16:02:00,76.0,69.0,30.16,NW,315,0.9,3.4,79,0.00,,,0.04,WUHU216HW,2013-08-18 20:02:00,
2013-08-18 16:07:00,76.0,68.7,30.16,West,270,1.1,1.8,78,0.00,,,0.04,WUHU216HW,2013-08-18 20:07:00,
2013-08-18 16:12:00,76.0,68.7,30.16,NW,315,1.1,1.8,78,0.00,,,0.04,WUHU216HW,2013-08-18 20:12:00,
2013-08-18 16:17:00,75.6,67.2,30.16,West,270,1.6,3.4,75,0.00,,,0.04,WUHU216HW,2013-08-18 20:17:00,
2013-08-18 16:22:00,75.4,67.8,30.16,West,270,0.7,3.4,77,0.00,,,0.04,WUHU216HW,2013-08-18 20:22:00,
2013-08-18 16:27:00,75.2,67.6,30.16,NNE,23,0.4,2.7,77,0.00,,,0.04,WUHU216HW,2013-08-18 20:27:00,
2013-08-18 16:32:00,75.6,68.3,30.15,WSW,248,2.0,2.2,78,0.00,,,0.04,WUHU216HW,2013-08-18 20:32:00,
2013-08-18 16:37:00,75.2,68.0,30.15,West,270,1.1,3.1,78,0.00,,,0.04,WUHU216HW,2013-08-18 20:37:00,
2013-08-18 16:42:00,75.2,68.0,30.16,West,270,0.9,3.1,78,0.00,,,0.04,WUHU216HW,2013-08-18 20:42:00,
2013-08-18 16:47:00,75.1,67.8,30.15,North,0,1.1,2.2,78,0.00,,,0.04,WUHU216HW,2013-08-18 20:47:00,
2013-08-18 16:52:00,74.7,67.4,30.15,West,270,1.8,2.2,78,0.00,,,0.04,WUHU216HW,2013-08-18 20:52:00,
2013-08-18 16:57:00,74.7,67.1,30.15,West,270,1.1,2.2,77,0.00,,,0.04,WUHU216HW,2013-08-18 20:57:00,
2013-08-18 17:02:00,74.5,67.2,30.16,West,270,1.6,1.8,78,0.00,,,0.04,WUHU216HW,2013-08-18 21:02:00,
2013-08-18 17:07:00,74.2,66.9,30.16,West,270,0.7,2.2,78,0.00,,,0.04,WUHU216HW,2013-08-18 21:07:00,
2013-08-18 17:12:00,74.0,66.7,30.16,West,270,0.9,2.2,78,0.00,,,0.04,WUHU216HW,2013-08-18 21:12:00,
2013-08-18 17:17:00,73.8,66.6,30.16,West,270,0.0,1.8,78,0.00,,,0.04,WUHU216HW,2013-08-18 21:17:00,
2013-08-18 17:22:00,73.8,66.6,30.16,West,270,0.0,1.6,78,0.00,,,0.04,WUHU216HW,2013-08-18 21:22:00,
2013-08-18 17:27:00,73.6,66.4,30.16,West,270,0.9,1.3,78,0.00,,,0.04,WUHU216HW,2013-08-18 21:27:00,
2013-08-18 17:32:00,73.6,66.4,30.16,West,270,0.2,1.3,78,0.00,,,0.04,WUHU216HW,2013-08-18 21:32:00,
2013-08-18 17:37:00,73.6,66.4,30.16,West,270,0.2,0.7,78,0.00,,,0.04,WUHU216HW,2013-08-18 21:37:00,
2013-08-18 18:00:00,73.1,66.6,30.16,West,270,0.0,0.0,80,0.00,,,0.04,WUHU216HW,2013-08-18 22:00:00,
2013-08-18 18:05:00,73.1,66.6,30.16,North,0,0.0,0.9,80,0.00,,,0.04,WUHU216HW,2013-08-18 22:05:00,
2013-08-18 18:10:00,73.3,66.8,30.16,SSE,158,0.0,1.1,80,0.00,,,0.04,WUHU216HW,2013-08-18 22:10:00,
2013-08-18 18:15:00,73.4,67.3,30.16,SE,135,1.1,1.1,81,0.00,,,0.04,WUHU216HW,2013-08-18 22:15:00,
2013-08-18 18:20:00,73.4,67.3,30.16,SE,135,0.4,1.3,81,0.00,,,0.04,WUHU216HW,2013-08-18 22:20:00,
2013-08-18 18:25:00,73.3,67.2,30.16,South,180,1.3,1.8,81,0.00,,,0.04,WUHU216HW,2013-08-18 22:25:00,
2013-08-18 18:30:00,73.1,67.3,30.16,ESE,113,0.4,1.8,82,0.00,,,0.04,WUHU216HW,2013-08-18 22:30:00,
2013-08-18 18:35:00,73.1,67.3,30.16,SW,225,0.9,1.3,82,0.00,,,0.04,WUHU216HW,2013-08-18 22:35:00,
2013-08-18 18:40:00,72.9,67.4,30.16,SE,135,0.4,1.8,83,0.00,,,0.04,WUHU216HW,2013-08-18 22:40:00,
2013-08-18 18:45:00,72.5,66.8,30.16,SE,135,0.2,1.8,82,0.00,,,0.04,WUHU216HW,2013-08-18 22:45:00,
2013-08-18 18:50:00,72.4,66.9,30.16,SSE,158,0.0,1.3,83,0.00,,,0.04,WUHU216HW,2013-08-18 22:50:00,
2013-08-18 18:55:00,72.2,67.1,30.16,SSE,158,0.0,0.4,84,0.00,,,0.04,WUHU216HW,2013-08-18 22:55:00,
2013-08-18 19:00:00,72.0,66.9,30.16,SE,135,0.0,0.7,84,0.00,,,0.04,WUHU216HW,2013-08-18 23:00:00,
2013-08-18 19:05:00,71.8,66.7,30.16,SSE,158,0.2,0.7,84,0.00,,,0.04,WUHU216HW,2013-08-18 23:05:00,
2013-08-18 19:09:00,71.6,66.9,30.16,SSE,158,0.0,0.7,85,0.00,,,0.04,WUHU216HW,2013-08-18 23:09:00,
2013-08-18 19:14:00,71.6,66.9,30.16,SE,135,0.0,0.2,85,0.00,,,0.04,WUHU216HW,2013-08-18 23:14:00,
2013-08-18 19:19:00,71.5,66.7,30.16,SW,225,0.0,0.0,85,0.00,,,0.04,WUHU216HW,2013-08-18 23:19:00,
2013-08-18 19:25:00,71.3,66.5,30.16,SW,225,0.0,0.0,85,0.00,,,0.04,WUHU216HW,2013-08-18 23:25:00,
2013-08-18 19:30:00,71.3,66.9,30.16,SW,225,0.0,0.0,86,0.00,,,0.04,WUHU216HW,2013-08-18 23:30:00,
2013-08-18 19:35:00,71.1,66.7,30.16,SE,135,0.0,0.4,86,0.00,,,0.04,WUHU216HW,2013-08-18 23:35:00,
2013-08-18 19:40:00,71.1,66.7,30.16,SE,135,0.0,0.4,86,0.00,,,0.04,WUHU216HW,2013-08-18 23:40:00,
2013-08-18 19:45:00,71.1,66.7,30.16,SE,135,0.0,0.0,86,0.00,,,0.04,WUHU216HW,2013-08-18 23:45:00,
2013-08-18 19:50:00,71.1,66.7,30.17,SSE,158,0.7,0.7,86,0.00,,,0.04,WUHU216HW,2013-08-18 23:50:00,
2013-08-18 19:55:00,70.9,66.9,30.17,SSE,158,0.0,1.1,87,0.00,,,0.04,WUHU216HW,2013-08-18 23:55:00,
2013-08-18 20:00:00,70.9,66.9,30.17,SE,135,0.2,1.1,87,0.00,,,0.04,WUHU216HW,2013-08-19 00:00:00,
2013-08-18 20:05:00,70.7,66.7,30.17,SE,135,0.4,0.9,87,0.00,,,0.04,WUHU216HW,2013-08-19 00:05:00,
2013-08-18 20:10:00,70.7,66.7,30.17,SE,135,0.0,0.9,87,0.00,,,0.04,WUHU216HW,2013-08-19 00:10:00,
2013-08-18 20:15:00,70.7,66.7,30.17,SE,135,0.7,1.1,87,0.00,,,0.04,WUHU216HW,2013-08-19 00:15:00,
2013-08-18 20:20:00,70.6,66.5,30.17,ESE,113,0.0,1.1,87,0.00,,,0.04,WUHU216HW,2013-08-19 00:20:00,
2013-08-18 20:25:00,70.6,66.8,30.17,SSE,158,0.2,1.1,88,0.00,,,0.04,WUHU216HW,2013-08-19 00:25:00,
2013-08-18 20:30:00,70.6,66.8,30.17,SSE,158,0.2,1.1,88,0.00,,,0.04,WUHU216HW,2013-08-19 00:30:00,